FENGYUN 1C DEB

Satellite information

Favourite Embed

Satellite Type and Status

DEBRISIN ORBIT

Key statistics

Satellite FENGYUN 1C DEB at a glance.

Uptime

9658

Days in orbit

Revolutions

≈ 14.1

Per day

Orbit

SSO

Sun Synchronous Orbit

Inclination

98.8

Latest

Satellite identification and parameters

Extended collection of information and parameters for FENGYUN 1C DEB.

Object identification

Identified? True

Debris? True

Object name: FENGYUN 1C DEB

International designator: 1999-025AQ

Object number (NORAD): 29750

Object ID (CCSDS): 29750

Country: PEOPLES REPUBLIC OF CHINA (PRC)

Current information (Y/N): Y

RCS size: SMALL

Orbital parameters

Period: 102.159 minutes

Inclination: 98.7624 deg

SMA: 7238.976 km

Apoapsis: 887.699 km

Periapsis: 833.982 km

RAAN: 321.5491 deg

Eccentricy: 0.00371028

Argument of periapsis: 98.8773 deg

Mean anomaly: 337.9774 deg

Mean motion: 14.09571413 rev/day

Mean motion (dot): 0.00000512 rev/day2

B* drag term: 0.00031502693 1/REarth

Two-line elements (TLE)

Creation date: Oct. 18, 2025, 2:17 a.m.

Reference frame: TEME

Reference center: EARTH

Epoch: Oct. 17, 2025, 9:52 p.m. UTC

TLE line 0: 0 FENGYUN 1C DEB

TLE line 1: 1 29750U 99025AQ 25290.91115587 .00000512 00000-0 31503-3 0 9996

TLE line 2: 2 29750 98.7624 321.5491 0037103 98.8773 337.9774 14.09571413962879

Live tracking on map

Real-time ground track for satellite FENGYUN 1C DEB.

In-orbit conjunctions

A list of the most updated potential collisions computed for object FENGYUN 1C DEB.

Target Orbit TCA Probability of collision Miss distance Type
FENGYUN 1C DEB SSO 2025-09-14 00:25:48 0.0002056159 202.0 (m) DEBRIS
METEOR 2-7 LEO 2025-01-23 19:32:51 0.001236894 69.0 (m) PAYLOAD

Associated space launch

Chinese polar orbiting meteorological satellite

FENGYUN 1C DEB was lifted into orbit during the mission ‘Long March 4B | Feng Yun 1C’, on board a Long March 4B space rocket.

The launch took place on May 10, 1999, 1:33 a.m. from Launch Complex 7.

For more information about the launch, click the button.

Launch to space Long March 4B | Feng Yun 1C
Long March 4B | Feng Yun 1C

Agency: N/A

Status: Launch Successful

Launch date: May 10, 1999, 1:33 a.m. UTC

Rocket: Long March 4B

Launch pad: Launch Complex 7

Location: Taiyuan Satellite Launch Center, People's Republic of China

...

Latest news about this satellite

There are no fresh news available about this satellite. Check back as we update our databases every day.


Newsletter sign-up

Weekly statistics, charts and insights to help you stay on top of the space industry.